Погода в Керчи

Погода в Керчи : погода сейчас, прогноз погоды и архив. Всё, что Вы хотите узнать о погоде в Керчи!

Поиск расширенной информации на нашем сайте:

Другие новости

Новости СМИ2

Главная страница сайта

Новости сайта

03.07.2017

Напоминаем, что на нашем специализированном сайте Метеоцентр.Азия вы можете получить высокодетализированные автоматические прогнозы погоды по пунктам России, СНГ и мира в авиационном формате (включающие направление и скорость ветра, видимость, явления погоды, количество и форму облачности, нижнюю и верхнюю границу облачности).


Погода в Керчи - сегодня

Время (UTC), дата Ветер
(°,м/с) 
Видим.   Явления Облачность Т
(°С)
Тd
(°С)
f(%) Тe
(°С)
Pmin
(гПа)
dP
(гПа)
Po
(мм)
O2
(г/м3)
Тmin Tmax R s Состояние
почвы
12 09.12.17 200 (Ю) 8-13{16}  10 км    6/3 600 м средняя, верхняя 
[Sc|Ac trans|Ci fib]
+12.1 +8 76 +10  1016.7  -0.7  758  291           
15 09.12.17 170 (Ю) 6{13}  10 км    8/4 600 м средняя 
[Sc|Ac trans]
+10.3 +7.9 85 +9  1017  0.2  758  293           
18 09.12.17 170 (Ю) 7-10  10 км    3/0 средняя, верхняя 
[Ac trans|Ci fib]
+10 +7.4 84 +8  1016.5  -0.5  758  293    +13.4       
21 09.12.17 190 (Ю) 6{11}  10 км    5/0 средняя 
[Ac trans]
+10.3 +8.4 88 +9  1016.7  0.2  758  293           
00 10.12.17 160 (Ю) 10 км    4/4 300 м средняя 
[Sc|Ac trans]
+10.6 +8.9 89 +9  1016.3  -0.4  758  292           
03 10.12.17 150 (ЮВ) 10 км    9/6 300 м средняя 
[Sc|Ac trans]
+10.8 +9.2 90 +9  1015.4  -0.9  757  292  +9.9         
06 10.12.17 160 (Ю) 10 км    6/6 300 м 
[St]
+11.1 +9.3 89 +10  1014.1  -1.2  756  291  +9.9         
09 10.12.17 160 (Ю) 5-10{11}  10 км    8/8 300 м 
[Sc]
+11.9 +9.9 88 +12  1013.5  -0.6  756  290           
12 10.12.17 170 (Ю) 6{11}  10 км    3/3 600 м 
[Sc]
+13.3 +9.4 77 +12  1010.1  -3.4  753  288           
15 10.12.17 160 (Ю) 8-13{14}  10 км    10/6 600 м средняя 
[Sc|Ac trans]
+11.5 +8.7 83 +10  1008.2  -1.9  752  289           
18 10.12.17 220 (ЮЗ) 12  10 км  слаб. ливневой дождь  10/8 600 м кучево-дожд., средняя 
[Cb cap|Ac trans]
+8.9 +6.1 83 +6  1009.4  1.1  753  293    +13.7  0.4     
21 10.12.17 260 (З) 12-17{18}  10 км  {ливн. осадки}  10/6 600 м средняя 
[Sc|Ac trans]
+4.9 +1.6 79 +1  1013.9  4.4  756  299           
00 11.12.17 250 (З) 8-13{17}  10 км  {ливн. осадки}  3/0 средняя 
[Ac trans]
+2.9 -1 75 -1  1018  759  303           
03 11.12.17 250 (З) 10 км    3/0 средняя 
[Ac trans]
+2 -1.4 78 -1  1020.6  2.6  761  305  +1.7    0.4     
06 11.12.17 тихо ()   10 км    10/4 600 м средняя 
[Sc|As trans]
+2.7 -1.2 75 +3  1022.7  2.1  762  304  +0    0.0     
09 11.12.17 200 (Ю) 10 км    10/3 600 м средняя, верхняя 
[Sc|Ac trans|Ci fib]
+9 -0.6 51 +7  1022.6  762  297           
12 11.12.17 200 (Ю) 8-13{14}  10 км    10/4 600 м средняя 
[Sc|Ac trans]
+9.1 +0.1 53 +7  1022.2  -0.4  762  297           
15 11.12.17 190 (Ю) 6{13}  10 км    6/3 600 м верхняя 
[Sc|Ci fib]
+7.7 +2.8 71 +6  1022.5  0.3  762  298           
18 11.12.17 180 (Ю) 8-11  10 км    3/3 600 м 
[Sc]
+9.5 +6.7 83 +7  1021.8  -0.6  762  296    +11.1       
21 11.12.17 190 (Ю) 7-10{12}  10 км    1/1 600 м 
[Sc]
+9.4 +7.4 87 +7  1021.9  0.1  762  296           
00 12.12.17 190 (Ю) 5{10}  10 км    3/0 верхняя 
[Ci fib]
+9.7 +8.3 91 +8  1022.3  0.4  762  295           
03 12.12.17 200 (Ю) 10 км    8/8 600 м 
[Sc]
+10.8 +8.8 87 +10  1021.5  -0.8  762  294  +7.5         
06 12.12.17 190 (Ю) 5-10  10 км    10/8 600 м средняя 
[Sc|Ac trans]
+11.4 +8.1 80 +10  1021.3  -0.2  761  293  +7.5         
09 12.12.17 200 (Ю) 8-13{14}  10 км    8/0 верхняя 
[Ci fib]
+14.6 +8.7 68 +14  1021.3  0.1  761  290           
12 12.12.17 200 (Ю) 9-14{14}  10 км    3/0 верхняя 
[Ci fib]
+15.1 +7.2 59 +14  1019.6  -1.7  760  289           
Время (UTC), дата Ветер
(°,м/с) 
Видим.   Явления Облачность Т
(°С)
Тd
(°С)
f(%) Тe
(°С)
Pmin
(гПа)
dP
(гПа)
Po
(мм)
O2
(г/м3)
Тmin Tmax R s Состояние
почвы

Для получения пояснительной информации подведите курсор к названию столбца.

ПОГОДА в Керчи - архив

Всё, что Вы хотите узнать о погоде в Керчи - удобно и подробно!

Выберите нужную дату (начиная с 1 января 2015* года) и нажмите кнопку "Найти".
Будут отображены архивные сводки погоды по пункту Керчь, начиная с указанной даты.


Отображать данные в формате CSV (для использования в таблицах Excel)


Внимание! Наш архив погоды предназначен исключительно для личного некоммерческого использования в познавательных целях. Если Вам необходимы официальные справки о состоянии погоды (для производственных, юридических, коммерческих и т.п. целей), обращайтесь в органы Росгидромета.

*Примечание: данная дата относится к архиву по метеостанциям СССР (Россия, СНГ, Балтия).
Архив по метеостанциям Зарубежной Европы и Азии (кроме Китая) хранится 10 дней, по другим регионам земного шара (Китай, Африка, Америка, Австралия, Океания) - 1 день.

Керчь - район местоположения метеостанции


Название, широта, долгота, высота метеостанции:
Керчь 45.4°ш. 36.4°д. 49 м над ур. моря [Российская Федерация]

Дополнительная информация

В oтличие oт бoльшинства пoгoдных сайтoв мы публикуем пoдрoбную метеoинфoрмацию в детальнoм прoфессиoнальнoм фoрмате.

Характеристики температуры и влажнoсти вoздуха измеряются на высoте 2 м в тени вдали oт зданий и деревьев.
Скoрoсть ветра измеряется на высoте 10 м (на урoвне рoста челoвека скoрoсть ветра ниже в 1.5-2 раза). Если метеoстанция нахoдится в гoрoде или в лесу, тo скoрoсть ветра занижена на 2-4 м/с пo сравнению с oткрытым местoм. Скoрoсть ветра над акватoриями крупных рек и oзёр, а также на вершинах хoлмoв на 2-5 м/с выше, чем в oбычных услoвиях.
Атмoсфернoе давление в разных тoчках местнoсти мoжет значительнo oтличаться oт давления на метеoстанции, в зависимoсти oт услoвий рельефа (при пoдъёме на 10 м давление пoнижается примернo на 1 мм рт.ст.).